| time (UTC) | temp C | wind direction | speed KPH | gust KPH | rain 1hr cm | rain 24hr cm | rain mn cm | humidity % | barometer mb |
| 20260504081601 | 11 | 178 | 3.2 | 8.0 | 0.00 | 0.00 | 0.00 | 64 | 1005.2 |
| 20260504050112 | 13 | 220 | 0.0 | 4.8 | 0.00 | 0.00 | 0.00 | 59 | 1006.8 |
| 20260504044552 | 13 | 217 | 1.6 | 6.4 | 0.00 | 0.00 | 0.00 | 58 | 1007.1 |
| 20260504043106 | 14 | 207 | 3.2 | 8.0 | 0.00 | 0.00 | 0.00 | 57 | 1007.1 |
| 20260504041550 | 15 | 205 | 3.2 | 8.0 | 0.00 | 0.00 | 0.00 | 56 | 1007.3 |
| 20260504040058 | 15 | 196 | 3.2 | 11.3 | 0.00 | 0.00 | 0.00 | 55 | 1007.4 |
| 20260504034552 | 15 | 209 | 3.2 | 8.0 | 0.00 | 0.00 | 0.00 | 54 | 1007.6 |
| 20260504033055 | 15 | 192 | 3.2 | 8.0 | 0.00 | 0.00 | 0.00 | 54 | 1007.7 |
| 20260504031558 | 15 | 201 | 3.2 | 9.7 | 0.00 | 0.00 | 0.00 | 53 | 1007.7 |
| 20260504030054 | 16 | 200 | 3.2 | 8.0 | 0.00 | 0.00 | 0.00 | 52 | 1007.8 |
| 20260504024550 | 16 | 198 | 3.2 | 8.0 | 0.00 | 0.00 | 0.00 | 51 | 1007.6 |
| 20260504023052 | 16 | 188 | 3.2 | 8.0 | 0.00 | 0.00 | 0.00 | 48 | 1007.5 |
| 20260504021550 | 17 | 202 | 4.8 | 9.7 | 0.00 | 0.00 | 0.00 | 48 | 1007.5 |
| 20260504020047 | 17 | 223 | 3.2 | 6.4 | 0.00 | 0.00 | 0.00 | 48 | 1007.4 |
| 20260504014558 | 17 | 234 | 3.2 | 9.7 | 0.00 | 0.00 | 0.00 | 47 | 1007.4 |
| 20260504013100 | 18 | 221 | 3.2 | 6.4 | 0.00 | 0.00 | 0.00 | 46 | 1007.4 |
| 20260504011549 | 18 | 227 | 3.2 | 8.0 | 0.00 | 0.00 | 0.00 | 44 | 1007.4 |
| 20260504010110 | 19 | 214 | 3.2 | 11.3 | 0.00 | 0.00 | 0.00 | 42 | 1007.4 |
| 20260504004553 | 20 | 193 | 6.4 | 12.9 | 0.00 | 0.00 | 0.00 | 39 | 1007.3 |
| 20260504003050 | 20 | 240 | 4.8 | 14.5 | 0.00 | 0.00 | 0.00 | 37 | 1007.4 |
| 20260504001600 | 21 | 224 | 8.0 | 16.1 | 0.00 | 0.00 | 0.00 | 34 | 1007.3 |
| 20260504000049 | 21 | 231 | 8.0 | 17.7 | 0.00 | 0.00 | 0.00 | 34 | 1007.3 |
| 20260503234551 | 21 | 218 | 9.7 | 17.7 | 0.00 | 0.00 | 0.00 | 35 | 1007.3 |
| 20260503233102 | 21 | 252 | 9.7 | 17.7 | 0.00 | 0.00 | 0.00 | 35 | 1007.3 |
| 20260503231550 | 22 | 243 | 12.9 | 24.1 | 0.00 | 0.00 | 0.00 | 34 | 1007.3 |
| 20260503230051 | 22 | 267 | 12.9 | 24.1 | 0.00 | 0.00 | 0.00 | 33 | 1007.2 |
| 20260503224547 | 22 | 223 | 12.9 | 27.4 | 0.00 | 0.00 | 0.00 | 33 | 1007.3 |
| 20260503223050 | 22 | 225 | 12.9 | 24.1 | 0.00 | 0.00 | 0.00 | 33 | 1007.3 |
| 20260503221557 | 22 | 205 | 12.9 | 33.8 | 0.00 | 0.00 | 0.00 | 33 | 1007.3 |
| 20260503220103 | 22 | 239 | 16.1 | 32.2 | 0.00 | 0.00 | 0.00 | 33 | 1007.4 |
| 20260503214546 | 22 | 254 | 12.9 | 29.0 | 0.00 | 0.00 | 0.00 | 34 | 1007.7 |
| 20260503213049 | 22 | 219 | 19.3 | 33.8 | 0.00 | 0.00 | 0.00 | 36 | 1007.8 |
| 20260503211547 | 22 | 254 | 12.9 | 24.1 | 0.00 | 0.00 | 0.00 | 37 | 1007.9 |
| 20260503210056 | 21 | 200 | 19.3 | 35.4 | 0.00 | 0.00 | 0.00 | 39 | 1008.0 |
| 20260503204602 | 21 | 262 | 12.9 | 24.1 | 0.00 | 0.00 | 0.00 | 43 | 1008.2 |
| 20260503203100 | 20 | 252 | 6.4 | 20.9 | 0.00 | 0.00 | 0.00 | 44 | 1008.5 |
| 20260503201549 | 19 | 240 | 11.3 | 24.1 | 0.00 | 0.00 | 0.00 | 45 | 1008.7 |
| 20260503200053 | 19 | 178 | 11.3 | 25.7 | 0.00 | 0.00 | 0.00 | 47 | 1008.7 |
| 20260503194609 | 19 | 251 | 14.5 | 24.1 | 0.00 | 0.00 | 0.00 | 46 | 1009.0 |
| 20260503193051 | 18 | 211 | 8.0 | 30.6 | 0.00 | 0.00 | 0.00 | 48 | 1008.8 |
| 20260503191601 | 18 | 257 | 12.9 | 27.4 | 0.00 | 0.00 | 0.00 | 46 | 1008.8 |
| 20260503190059 | 18 | 234 | 12.9 | 29.0 | 0.00 | 0.00 | 0.00 | 46 | 1008.8 |
| 20260503184556 | 17 | 213 | 12.9 | 25.7 | 0.00 | 0.00 | 0.00 | 46 | 1007.5 |
| 20260503183105 | 18 | 232 | 12.9 | 29.0 | 0.00 | 0.00 | 0.00 | 45 | 1009.2 |
| 20260503181552 | 18 | 218 | 12.9 | 27.4 | 0.00 | 0.00 | 0.00 | 45 | 1009.3 |
| 20260503180105 | 18 | 221 | 17.7 | 29.0 | 0.00 | 0.00 | 0.00 | 44 | 1009.7 |
| 20260503174551 | 18 | 130 | 12.9 | 37.0 | 0.00 | 0.00 | 0.00 | 44 | 1009.2 |
| 20260503173139 | 17 | 213 | 17.7 | 33.8 | 0.00 | 0.00 | 0.00 | 45 | 1009.7 |
| 20260503171552 | 17 | 251 | 22.5 | 41.8 | 0.00 | 0.00 | 0.00 | 44 | 1009.7 |